Simultaneous Nadir Overpasses (SNOs) Predictions

Prediction of SNOs between GOES-16 and METOP-C Satellite Orbit:

Table of predicted SNOs for the next 14.0 days since TLE Epoch: 5/18/2024
Index Date Time (GOES-16) GOES-16 Lat,Lon METOP-C Lat,Lon Distance(km) Time Diff (sec)
1 05/18/2024 14:41:17 0.06, -75.20 0.73, -78.09 329.43 80
2 05/19/2024 14:23:20 0.06, -75.21 -0.43, -73.11 240.12 80
3 05/21/2024 02:42:22 -0.05, -75.22 -0.59, -77.71 283.37 80
4 05/22/2024 02:19:03 -0.05, -75.22 0.52, -72.71 286.27 80
5 05/23/2024 14:37:56 0.05, -75.24 0.53, -77.27 231.99 80
6 05/24/2024 14:19:58 0.04, -75.25 -0.64, -72.29 337.79 80
7 05/26/2024 02:39:00 -0.04, -75.25 -0.42, -76.88 185.47 80
8 05/27/2024 02:15:41 -0.03, -75.26 0.70, -71.89 384.35 80
9 05/28/2024 14:34:33 0.03, -75.28 0.31, -76.45 133.32 80
10 05/29/2024 14:16:35 0.02, -75.29 -0.82, -71.46 437.07 80
11 05/31/2024 02:35:37 -0.02, -75.31 -0.17, -76.06 84.79 80
12 06/01/2024 02:12:18 -0.02, -75.33 0.91, -71.06 486.09 80
